• In Deutschland
  • Länderverzeichnis
  • Für 7 Tage
  • Wassertemperatur
  • Satellitenkarten
  • Wetterkarte
  • Widgets
  • user-avatar
    Anmelden

    Stündliche Wetter Samos

    Heute, 23 Juni, Samstag

    Zeit Temperatur Niederschläge Wind Luftdruck Luftfeuchtigkeit
    00:00 +21°C° 0 mm 1 m/S 719 mmHg 77%
    01:00 +20°C° 0 mm 1 m/S 719 mmHg 78%
    02:00 +19°C° 0 mm 2 m/S 718 mmHg 79%
    03:00 +19°C° 0 mm 2 m/S 718 mmHg 79%
    04:00 +19°C° 0 mm 2 m/S 718 mmHg 79%
    05:00 +18°C° 0 mm 2 m/S 718 mmHg 79%
    06:00 +21°C° 0 mm 2 m/S 718 mmHg 70%
    07:00 +24°C° 0 mm 2 m/S 718 mmHg 62%
    08:00 +26°C° 0 mm 2 m/S 719 mmHg 53%
    09:00 +27°C° 0 mm 2 m/S 719 mmHg 47%
    10:00 +29°C° 0 mm 2 m/S 719 mmHg 41%
    11:00 +30°C° 0 mm 2 m/S 719 mmHg 36%
    12:00 +31°C° 0 mm 2 m/S 719 mmHg 35%
    13:00 +31°C° 0 mm 3 m/S 719 mmHg 35%
    14:00 +31°C° 0 mm 3 m/S 718 mmHg 35%
    15:00 +31°C° 0 mm 3 m/S 718 mmHg 37%
    16:00 +30°C° 0 mm 4 m/S 718 mmHg 40%
    17:00 +29°C° 0 mm 4 m/S 718 mmHg 43%
    18:00 +28°C° 0 mm 4 m/S 718 mmHg 50%
    19:00 +26°C° 0 mm 4 m/S 718 mmHg 57%
    20:00 +24°C° 0 mm 3 m/S 718 mmHg 64%
    21:00 +24°C° 0 mm 3 m/S 718 mmHg 66%
    22:00 +22°C° 0 mm 3 m/S 718 mmHg 69%
    23:00 +22°C° 0 mm 3 m/S 719 mmHg 71%

    Morgen, 24 Juni, Sonntag

    Zeit Temperatur Niederschläge Wind Luftdruck Luftfeuchtigkeit
    00:00 +21°C° 0 mm 3 m/S 719 mmHg 71%
    01:00 +21°C° 0 mm 3 m/S 718 mmHg 72%
    02:00 +21°C° 0 mm 3 m/S 718 mmHg 73%
    03:00 +20°C° 0 mm 3 m/S 718 mmHg 73%
    04:00 +20°C° 0 mm 4 m/S 718 mmHg 74%
    05:00 +19°C° 0 mm 4 m/S 718 mmHg 75%
    06:00 +21°C° 0 mm 4 m/S 718 mmHg 68%
    07:00 +23°C° 0 mm 4 m/S 718 mmHg 61%
    08:00 +25°C° 0 mm 4 m/S 718 mmHg 55%
    09:00 +27°C° 0 mm 4 m/S 718 mmHg 49%
    10:00 +29°C° 0 mm 4 m/S 719 mmHg 43%
    11:00 +30°C° 0 mm 4 m/S 719 mmHg 38%
    12:00 +32°C° 0 mm 4 m/S 719 mmHg 36%
    13:00 +33°C° 0 mm 5 m/S 719 mmHg 34%
    14:00 +33°C° 0 mm 5 m/S 719 mmHg 32%
    15:00 +33°C° 0 mm 6 m/S 718 mmHg 35%
    16:00 +32°C° 0 mm 6 m/S 718 mmHg 37%
    17:00 +30°C° 0 mm 6 m/S 718 mmHg 40%
    18:00 +29°C° 0 mm 6 m/S 718 mmHg 46%
    19:00 +27°C° 0 mm 6 m/S 718 mmHg 52%
    20:00 +25°C° 0 mm 5 m/S 718 mmHg 58%
    21:00 +25°C° 0 mm 5 m/S 718 mmHg 61%
    22:00 +23°C° 0 mm 5 m/S 718 mmHg 64%
    23:00 +22°C° 0 mm 5 m/S 718 mmHg 66%

    übermorgen, 25 Juni, Montag

    Zeit Temperatur Niederschläge Wind Luftdruck Luftfeuchtigkeit
    00:00 +21°C° 0 mm 5 m/S 718 mmHg 69%
    01:00 +21°C° 0 mm 5 m/S 718 mmHg 71%
    02:00 +20°C° 0 mm 5 m/S 717 mmHg 73%
    03:00 +20°C° 0 mm 5 m/S 717 mmHg 75%
    04:00 +19°C° 0 mm 5 m/S 717 mmHg 76%
    05:00 +19°C° 0 mm 5 m/S 717 mmHg 78%
    06:00 +20°C° 0 mm 5 m/S 717 mmHg 71%
    07:00 +22°C° 0 mm 5 m/S 717 mmHg 64%
    08:00 +25°C° 0 mm 5 m/S 717 mmHg 58%
    09:00 +27°C° 0 mm 5 m/S 717 mmHg 51%
    10:00 +29°C° 0 mm 4 m/S 717 mmHg 45%
    11:00 +32°C° 0 mm 4 m/S 717 mmHg 39%
    12:00 +33°C° 0 mm 4 m/S 717 mmHg 37%
    13:00 +33°C° 0 mm 4 m/S 717 mmHg 35%
    14:00 +34°C° 0 mm 5 m/S 717 mmHg 32%
    15:00 +34°C° 0 mm 5 m/S 716 mmHg 35%
    16:00 +33°C° 0 mm 5 m/S 716 mmHg 37%
    17:00 +32°C° 0 mm 5 m/S 716 mmHg 40%
    18:00 +29°C° 0 mm 4 m/S 716 mmHg 47%
    19:00 +27°C° 0 mm 4 m/S 716 mmHg 53%
    20:00 +25°C° 0 mm 3 m/S 716 mmHg 60%
    21:00 +25°C° 0 mm 3 m/S 716 mmHg 64%
    22:00 +24°C° 0 mm 3 m/S 716 mmHg 68%
    23:00 +22°C° 0 mm 3 m/S 716 mmHg 72%

    26 Juni, Dienstag

    Zeit Temperatur Niederschläge Wind Luftdruck Luftfeuchtigkeit
    00:00 +22°C° 0 mm 3 m/S 716 mmHg 74%
    01:00 +21°C° 0 mm 3 m/S 715 mmHg 76%
    02:00 +21°C° 0 mm 2 m/S 715 mmHg 78%
    03:00 +20°C° 0 mm 2 m/S 715 mmHg 80%
    04:00 +20°C° 0 mm 2 m/S 715 mmHg 81%
    05:00 +20°C° 0 mm 3 m/S 715 mmHg 82%
    06:00 +21°C° 0,1 mm 3 m/S 715 mmHg 76%
    07:00 +24°C° 0,1 mm 3 m/S 715 mmHg 69%
    08:00 +26°C° 0,1 mm 3 m/S 715 mmHg 63%
    09:00 +27°C° 0,1 mm 3 m/S 715 mmHg 56%
    10:00 +29°C° 0,1 mm 4 m/S 715 mmHg 49%
    11:00 +30°C° 0,1 mm 5 m/S 715 mmHg 42%
    12:00 +30°C° 0 mm 5 m/S 715 mmHg 41%
    13:00 +30°C° 0 mm 5 m/S 715 mmHg 41%
    14:00 +30°C° 0 mm 6 m/S 715 mmHg 40%
    15:00 +29°C° 0,1 mm 6 m/S 715 mmHg 44%
    16:00 +28°C° 0,1 mm 6 m/S 715 mmHg 47%
    17:00 +27°C° 0,1 mm 6 m/S 715 mmHg 51%
    18:00 +24°C° 0 mm 6 m/S 715 mmHg 59%
    19:00 +23°C° 0 mm 5 m/S 715 mmHg 66%
    20:00 +22°C° 0 mm 4 m/S 716 mmHg 74%
    21:00 +21°C° 0 mm 4 m/S 716 mmHg 77%
    22:00 +21°C° 0 mm 4 m/S 716 mmHg 80%
    23:00 +20°C° 0 mm 3 m/S 716 mmHg 83%

    27 Juni, Mittwoch

    Zeit Temperatur Niederschläge Wind Luftdruck Luftfeuchtigkeit
    00:00 +20°C° 0 mm 3 m/S 716 mmHg 84%
    01:00 +19°C° 0 mm 3 m/S 716 mmHg 84%
    02:00 +19°C° 0 mm 3 m/S 716 mmHg 85%
    03:00 +19°C° 0 mm 3 m/S 716 mmHg 84%
    04:00 +19°C° 0 mm 3 m/S 716 mmHg 84%
    05:00 +19°C° 0 mm 2 m/S 716 mmHg 84%
    06:00 +20°C° 0 mm 2 m/S 716 mmHg 78%
    07:00 +23°C° 0 mm 2 m/S 717 mmHg 71%
    08:00 +24°C° 0 mm 2 m/S 717 mmHg 64%
    09:00 +25°C° 0,1 mm 2 m/S 717 mmHg 58%
    10:00 +26°C° 0,1 mm 2 m/S 717 mmHg 51%
    11:00 +27°C° 0,1 mm 2 m/S 717 mmHg 45%
    12:00 +28°C° 0 mm 2 m/S 717 mmHg 43%
    13:00 +29°C° 0 mm 2 m/S 717 mmHg 40%
    14:00 +30°C° 0 mm 2 m/S 717 mmHg 37%
    15:00 +30°C° 0 mm 2 m/S 717 mmHg 38%
    16:00 +30°C° 0 mm 2 m/S 716 mmHg 40%
    17:00 +29°C° 0 mm 2 m/S 716 mmHg 41%
    18:00 +27°C° 0 mm 2 m/S 716 mmHg 47%
    19:00 +26°C° 0 mm 1 m/S 716 mmHg 54%
    20:00 +24°C° 0 mm 1 m/S 716 mmHg 60%
    21:00 +23°C° 0 mm 1 m/S 717 mmHg 63%
    22:00 +23°C° 0 mm 1 m/S 717 mmHg 67%
    23:00 +22°C° 0 mm 1 m/S 717 mmHg 70%

    28 Juni, Donnerstag

    Zeit Temperatur Niederschläge Wind Luftdruck Luftfeuchtigkeit
    00:00 +22°C° 0 mm 1 m/S 717 mmHg 71%
    01:00 +19°C° 0 mm 0 m/S 716 mmHg 73%
    02:00 +19°C° 0 mm 0 m/S 716 mmHg 75%
    03:00 +19°C° 0 mm 0 m/S 716 mmHg 76%
    04:00 +20°C° 0 mm 1 m/S 716 mmHg 77%
    05:00 +20°C° 0 mm 1 m/S 716 mmHg 77%
    06:00 +22°C° 0 mm 1 m/S 716 mmHg 71%
    07:00 +24°C° 0 mm 1 m/S 716 mmHg 64%
    08:00 +26°C° 0 mm 1 m/S 717 mmHg 58%
    09:00 +27°C° 0,3 mm 2 m/S 717 mmHg 54%
    10:00 +28°C° 0,3 mm 3 m/S 717 mmHg 51%
    11:00 +29°C° 0,3 mm 4 m/S 717 mmHg 48%
    12:00 +29°C° 0 mm 4 m/S 717 mmHg 46%
    13:00 +29°C° 0 mm 4 m/S 717 mmHg 45%
    14:00 +29°C° 0 mm 4 m/S 717 mmHg 43%
    15:00 +29°C° 0 mm 4 m/S 717 mmHg 45%
    16:00 +28°C° 0 mm 4 m/S 717 mmHg 46%
    17:00 +27°C° 0 mm 4 m/S 717 mmHg 48%
    18:00 +26°C° 0 mm 3 m/S 717 mmHg 56%
    19:00 +24°C° 0 mm 3 m/S 717 mmHg 64%
    20:00 +21°C° 0 mm 2 m/S 717 mmHg 72%
    21:00 +21°C° 0 mm 2 m/S 718 mmHg 76%
    22:00 +20°C° 0 mm 2 m/S 718 mmHg 80%
    23:00 +20°C° 0 mm 1 m/S 718 mmHg 85%
    Mehr zeigen